Find Starlink 33842

NORAD ID: 63782 Int'l Des: 2025-091 Owner: SPXS Country: US Constellation: starlink operational
LEOCIRCULAR

当前视图

正在加载3D地球...

About Starlink 33842

Starlink 33842 (NORAD 63782) is a starlink constellation satellite (v2 mini) launched May 2, 2025 by SPXS of US. It operates in LEO, CIRCULAR orbit with a mass of 575.00 kg.

关于 Starlink 33842

正在加载描述...

即将过境

Passes for default location (London). Set your location on the main map for personalized predictions.

高度历史

Loading altitude history...

两行轨道根数

1 63782U 25091H 26171.42257883 .00010804 00000-0 40144-3 0 9998
2 63782 42.9992 192.3654 0001546 277.5566 82.5110 15.27588814 64700
Epoch: Jun 20, 2026 • Age: 13 hours

当前状态

高度 482.7 km
速度 7.63 km/s
星下点 19.93°N, 39.42°W
发射日期 May 2, 2025
运行时间 1.1 years
类型 internet

技术详情

分类 Payload
质量 575.00 kg
干质量 530.00 kg
总质量 575.00 kg
长度 0.30 m
直径 4.10 m
跨度 29.00 m
形状 Box + pan
制造商 SPXS
平台类型 Starlink V2MO
阶段状态 In Orbit
所有者/国家 SPXS/US

Most Searched